Starlink 3563

operational
NORAD ID: 51858 Int'l Des: 2022-022 Owner: SPXS Country: US Constellation: starlink
LEOCIRCULAR

Über Starlink 3563

Beschreibung wird geladen...

Live-Position

3D-Globus wird geladen...

Nächste Überflüge

Höhenverlauf

Altitude vs Time

uPlot chart will show altitude changes over time

Zweizeiliger Elementsatz

1 51858U 22022G 25350.30924023 .00002389 00000-0 16812-3 0 9996
2 51858 53.2186 33.4297 0001170 90.9828 269.1298 15.08838781210433
Epoch: 16. Dez. 2025 • Age: 14 hours

Aktueller Status

Höhe 542.5 km
Geschwindigkeit 7.59 km/s
Subsatellitenpunkt -9.33°S, 27.21°W
Startdatum 3. März 2022
Alter 3.7 years
Typ internet

Technische Details

Klassifizierung Payload
Masse 297.00 kg
Trockenmasse 275.00 kg
Gesamtmasse 297.00 kg
Länge 0.20 m
Durchmesser 2.80 m
Spannweite 9.00 m
Form Box + pan
Hersteller SPXS
Bus-Typ Starlink
Phasenstatus In Orbit
Besitzer/Staat SPXS/US

Große Konstellationen

Loading constellations...